DLH2304 EDDM-EHAM

Flight info

Callsign DLH2304
Flight time 1h 8m
Altitude 34000
Route GIVMI6S GIVMI Y101 IBAGA DCT MASEK DCT MAPOX DCT NORKU
Aircraft A320/M-SDE3FGHIRWY/LB1

Departure

Time 2026-05-05 17:56
Airport Munich Airport (EDDM)

Arrival

Time 2026-05-05 19:04
Airport Amsterdam Airport Schiphol (EHAM)
Time Latitude Longitude Altitude Speed Heading
2026-05-05 17:13 48.35255 11.79323 1460 ft 0 kts 263°
2026-05-05 17:39 48.35256 11.79351 1459 ft 4 kts 265°
2026-05-05 17:39 48.35258 11.79391 1458 ft 4 kts 269°
2026-05-05 17:39 48.35258 11.79432 1460 ft 4 kts 276°
2026-05-05 17:39 48.35253 11.79470 1465 ft 4 kts 298°
2026-05-05 17:40 48.35239 11.79491 1462 ft 1 kts 353°
2026-05-05 17:40 48.35234 11.79492 1464 ft 1 kts 353°
2026-05-05 17:41 48.35235 11.79492 1464 ft 0 kts 353°
2026-05-05 17:42 48.35243 11.79497 1462 ft 6 kts 25°
2026-05-05 17:42 48.35291 11.79538 1460 ft 8 kts 21°
2026-05-05 17:43 48.35348 11.79541 1467 ft 12 kts 354°
2026-05-05 17:43 48.35429 11.79527 1460 ft 10 kts 352°
2026-05-05 17:43 48.35442 11.79525 1464 ft 1 kts 353°
2026-05-05 17:43 48.35502 11.79515 1464 ft 13 kts 354°
2026-05-05 17:44 48.35583 11.79501 1459 ft 9 kts 353°
2026-05-05 17:44 48.35667 11.79485 1467 ft 14 kts 354°
2026-05-05 17:44 48.35757 11.79470 1463 ft 10 kts 353°
2026-05-05 17:44 48.35831 11.79456 1467 ft 10 kts 353°
2026-05-05 17:45 48.35869 11.79454 1461 ft 4 kts
2026-05-05 17:45 48.35891 11.79467 1462 ft 3 kts 31°
2026-05-05 17:45 48.35904 11.79479 1460 ft 2 kts 33°
2026-05-05 17:45 48.35912 11.79486 1462 ft 1 kts 33°
2026-05-05 17:46 48.35916 11.79490 1463 ft 3 kts 33°
2026-05-05 17:46 48.35994 11.79499 1465 ft 17 kts 353°
2026-05-05 17:46 48.36118 11.79477 1459 ft 18 kts 353°
2026-05-05 17:46 48.36208 11.79504 1463 ft 13 kts 56°
2026-05-05 17:47 48.36225 11.79628 1464 ft 11 kts 84°
2026-05-05 17:47 48.36237 11.79774 1462 ft 18 kts 83°
2026-05-05 17:47 48.36255 11.80006 1468 ft 26 kts 83°
2026-05-05 17:47 48.36276 11.80270 1463 ft 18 kts 83°
2026-05-05 17:48 48.36292 11.80463 1463 ft 20 kts 83°
2026-05-05 17:48 48.36307 11.80676 1464 ft 21 kts 85°
2026-05-05 17:48 48.36326 11.80909 1465 ft 23 kts 82°
2026-05-05 17:48 48.36344 11.81156 1467 ft 24 kts 83°
2026-05-05 17:49 48.36365 11.81418 1467 ft 26 kts 83°
2026-05-05 17:49 48.36383 11.81674 1462 ft 23 kts 84°
2026-05-05 17:49 48.36398 11.81884 1466 ft 6 kts 88°
2026-05-05 17:49 48.36393 11.81945 1457 ft 6 kts 101°
2026-05-05 17:50 48.36395 11.82010 1461 ft 4 kts 60°
2026-05-05 17:50 48.36425 11.82014 1459 ft 6 kts 358°
2026-05-05 17:50 48.36463 11.82009 1466 ft 4 kts 353°
2026-05-05 17:50 48.36474 11.82007 1464 ft 2 kts 351°
2026-05-05 17:51 48.36482 11.82005 1459 ft 0 kts 351°
2026-05-05 17:53 48.36488 11.82004 1461 ft 6 kts 352°
2026-05-05 17:54 48.36595 11.81984 1464 ft 18 kts 353°
2026-05-05 17:54 48.36668 11.81898 1459 ft 14 kts 288°
2026-05-05 17:54 48.36669 11.81852 1466 ft 0 kts 263°
2026-05-05 17:55 48.36666 11.81815 1458 ft 18 kts 263°
2026-05-05 17:55 48.36620 11.81203 1465 ft 95 kts 263°
2026-05-05 17:55 48.36525 11.79908 1462 ft 152 kts 262°
2026-05-05 17:55 48.36373 11.78179 1780 ft 177 kts 264°
2026-05-05 17:56 48.36233 11.76270 2386 ft 193 kts 265°
2026-05-05 17:56 48.36085 11.74168 2881 ft 215 kts 266°
2026-05-05 17:56 48.35917 11.71892 3695 ft 222 kts 266°
2026-05-05 17:56 48.35747 11.69566 4626 ft 225 kts 268°
2026-05-05 17:57 48.36014 11.67229 5374 ft 238 kts 292°
2026-05-05 17:57 48.36890 11.64968 5908 ft 260 kts 300°
2026-05-05 17:57 48.37863 11.62624 6660 ft 270 kts 300°
2026-05-05 17:57 48.38868 11.60194 7583 ft 274 kts 299°
2026-05-05 17:58 48.39877 11.57741 8509 ft 278 kts 299°
2026-05-05 17:58 48.40900 11.55240 9440 ft 282 kts 298°
2026-05-05 17:58 48.41932 11.52701 10307 ft 286 kts 298°
2026-05-05 17:58 48.42978 11.50118 11171 ft 290 kts 298°
2026-05-05 17:59 48.44033 11.47513 12032 ft 293 kts 299°
2026-05-05 17:59 48.45337 11.45102 12869 ft 302 kts 314°
2026-05-05 17:59 48.47083 11.43252 13595 ft 317 kts 329°
2026-05-05 17:59 48.49255 11.42131 13816 ft 345 kts 347°
2026-05-05 18:00 48.51671 11.41496 14305 ft 357 kts 347°
2026-05-05 18:00 48.54139 11.40848 14926 ft 362 kts 347°
2026-05-05 18:00 48.56636 11.40187 15599 ft 367 kts 347°
2026-05-05 18:00 48.59165 11.39508 16274 ft 371 kts 347°
2026-05-05 18:01 48.61690 11.38818 16939 ft 376 kts 347°
2026-05-05 18:01 48.64277 11.38100 17618 ft 380 kts 347°
2026-05-05 18:01 48.66893 11.37369 18261 ft 385 kts 347°
2026-05-05 18:01 48.69484 11.36334 18846 ft 386 kts 337°
2026-05-05 18:02 48.71916 11.34622 19440 ft 386 kts 327°
2026-05-05 18:02 48.74168 11.32403 20023 ft 388 kts 323°
2026-05-05 18:02 48.76426 11.30115 20571 ft 393 kts 323°
2026-05-05 18:02 48.78709 11.27797 21097 ft 397 kts 323°
2026-05-05 18:03 48.81015 11.25452 21651 ft 401 kts 323°
2026-05-05 18:03 48.83359 11.23114 22195 ft 405 kts 327°
2026-05-05 18:03 48.85910 11.21223 22732 ft 412 kts 337°
2026-05-05 18:03 48.88636 11.19819 23276 ft 416 kts 340°
2026-05-05 18:04 48.91395 11.18434 23745 ft 419 kts 340°
2026-05-05 18:04 48.94171 11.17032 24185 ft 422 kts 340°
2026-05-05 18:04 48.96970 11.15609 24615 ft 426 kts 339°
2026-05-05 18:04 48.99787 11.14172 25035 ft 429 kts 340°
2026-05-05 18:05 49.02632 11.12722 25445 ft 432 kts 340°
2026-05-05 18:05 49.05496 11.11262 25855 ft 436 kts 340°
2026-05-05 18:05 49.08378 11.09789 26260 ft 439 kts 340°
2026-05-05 18:05 49.11285 11.08301 26696 ft 442 kts 340°
2026-05-05 18:06 49.14205 11.06802 27105 ft 444 kts 340°
2026-05-05 18:06 49.16105 11.05630 27365 ft 445 kts 331°
2026-05-05 18:06 49.19457 11.02070 27877 ft 445 kts 319°
2026-05-05 18:06 49.21887 10.99111 28267 ft 448 kts 319°
2026-05-05 18:07 49.24324 10.96116 28633 ft 451 kts 319°
2026-05-05 18:07 49.26776 10.93088 29004 ft 454 kts 319°
2026-05-05 18:07 49.29245 10.90029 29378 ft 458 kts 319°
2026-05-05 18:07 49.31729 10.86947 29748 ft 461 kts 319°
2026-05-05 18:08 49.34228 10.83845 30073 ft 464 kts 319°
2026-05-05 18:08 49.36736 10.80734 30381 ft 466 kts 319°
2026-05-05 18:08 49.39262 10.77602 30690 ft 468 kts 319°
2026-05-05 18:08 49.41802 10.74450 31023 ft 470 kts 319°
2026-05-05 18:09 49.44351 10.71285 31322 ft 472 kts 319°
2026-05-05 18:09 49.46908 10.68107 31636 ft 473 kts 319°
2026-05-05 18:09 49.49465 10.64926 32022 ft 472 kts 319°
2026-05-05 18:09 49.52019 10.61746 32445 ft 472 kts 319°
2026-05-05 18:10 49.54566 10.58569 32868 ft 471 kts 319°
2026-05-05 18:10 49.57104 10.55394 33302 ft 470 kts 319°
2026-05-05 18:10 49.59640 10.52210 33707 ft 470 kts 319°
2026-05-05 18:10 49.62168 10.49026 33815 ft 466 kts 319°
2026-05-05 18:11 49.64649 10.45902 33831 ft 456 kts 319°
2026-05-05 18:11 49.69531 10.39753 33842 ft 452 kts 319°
2026-05-05 18:12 49.74406 10.33603 33819 ft 453 kts 319°
2026-05-05 18:12 49.79291 10.27426 33818 ft 453 kts 319°
2026-05-05 18:13 49.84160 10.21227 33816 ft 453 kts 319°
2026-05-05 18:13 49.89024 10.15020 33813 ft 453 kts 319°
2026-05-05 18:14 49.93896 10.08810 33814 ft 453 kts 319°
2026-05-05 18:14 49.98751 10.02595 33810 ft 453 kts 319°
2026-05-05 18:15 50.03610 9.96348 33802 ft 453 kts 319°
2026-05-05 18:15 50.08468 9.90091 33803 ft 453 kts 319°
2026-05-05 18:16 50.13300 9.83861 33801 ft 454 kts 319°
2026-05-05 18:16 50.18193 9.77538 33801 ft 454 kts 319°
2026-05-05 18:17 50.23013 9.71278 33805 ft 454 kts 318°
2026-05-05 18:17 50.27858 9.64963 33819 ft 454 kts 318°
2026-05-05 18:18 50.32706 9.58633 33807 ft 454 kts 318°
2026-05-05 18:18 50.37550 9.52295 33804 ft 454 kts 318°
2026-05-05 18:19 50.42394 9.45950 33807 ft 454 kts 318°
2026-05-05 18:19 50.47238 9.39582 33801 ft 454 kts 318°
2026-05-05 18:20 50.52073 9.33196 33794 ft 454 kts 317°
2026-05-05 18:20 50.56900 9.26801 33818 ft 453 kts 317°
2026-05-05 18:21 50.61716 9.20408 33809 ft 453 kts 317°
2026-05-05 18:21 50.66530 9.14010 33807 ft 453 kts 317°
2026-05-05 18:22 50.71340 9.07605 33802 ft 452 kts 317°
2026-05-05 18:22 50.76143 9.01179 33796 ft 452 kts 317°
2026-05-05 18:23 50.80939 8.94746 33807 ft 452 kts 317°
2026-05-05 18:23 50.85737 8.88298 33795 ft 452 kts 317°
2026-05-05 18:24 50.90521 8.81831 33797 ft 452 kts 317°
2026-05-05 18:24 50.95311 8.75351 33792 ft 452 kts 317°
2026-05-05 18:25 50.99283 8.69963 33797 ft 452 kts 317°
2026-05-05 18:25 51.04837 8.62410 33806 ft 452 kts 316°
2026-05-05 18:26 51.09603 8.55900 33815 ft 451 kts 316°
2026-05-05 18:26 51.13590 8.50438 33819 ft 451 kts 316°
2026-05-05 18:27 51.18321 8.43969 33813 ft 451 kts 316°
2026-05-05 18:27 51.23070 8.37440 33817 ft 451 kts 316°
2026-05-05 18:28 51.30185 8.27595 33832 ft 453 kts 315°
2026-05-05 18:28 51.34846 8.20873 33832 ft 450 kts 314°
2026-05-05 18:29 51.39525 8.14200 33845 ft 450 kts 315°
2026-05-05 18:29 51.44250 8.07632 33836 ft 450 kts 316°
2026-05-05 18:30 51.48991 8.01095 33837 ft 450 kts 316°
2026-05-05 18:30 51.53722 7.94524 33834 ft 449 kts 316°
2026-05-05 18:31 51.58427 7.87928 33841 ft 448 kts 315°
2026-05-05 18:31 51.63113 7.81323 33842 ft 447 kts 315°
2026-05-05 18:32 51.67801 7.74720 33612 ft 448 kts 315°
2026-05-05 18:32 51.70146 7.71413 33335 ft 448 kts 315°
2026-05-05 18:32 51.72484 7.68110 33061 ft 446 kts 315°
2026-05-05 18:33 51.74812 7.64822 32789 ft 444 kts 315°
2026-05-05 18:33 51.77134 7.61540 32522 ft 442 kts 315°
2026-05-05 18:33 51.79438 7.58277 32260 ft 440 kts 315°
2026-05-05 18:33 51.81725 7.55028 32002 ft 436 kts 315°
2026-05-05 18:34 51.83992 7.51800 31745 ft 432 kts 315°
2026-05-05 18:34 51.86239 7.48595 31487 ft 430 kts 315°
2026-05-05 18:34 51.88477 7.45403 31231 ft 427 kts 315°
2026-05-05 18:34 51.90699 7.42231 30982 ft 425 kts 315°
2026-05-05 18:35 51.92913 7.39062 30722 ft 423 kts 315°
2026-05-05 18:35 51.95106 7.35914 30501 ft 421 kts 315°
2026-05-05 18:35 51.97292 7.32762 30179 ft 419 kts 315°
2026-05-05 18:35 51.99459 7.29636 29764 ft 415 kts 315°
2026-05-05 18:36 52.01604 7.26544 29308 ft 411 kts 315°
2026-05-05 18:36 52.03592 7.23265 28861 ft 404 kts 303°
2026-05-05 18:36 52.04987 7.19379 28424 ft 396 kts 292°
2026-05-05 18:36 52.06184 7.15363 27989 ft 394 kts 292°
2026-05-05 18:37 52.07363 7.11354 27570 ft 391 kts 291°
2026-05-05 18:37 52.08520 7.07388 27195 ft 386 kts 291°
2026-05-05 18:37 52.09650 7.03497 26930 ft 385 kts 291°
2026-05-05 18:37 52.10790 6.99567 26668 ft 383 kts 291°
2026-05-05 18:38 52.11928 6.95657 26432 ft 382 kts 291°
2026-05-05 18:38 52.13063 6.91757 26172 ft 381 kts 291°
2026-05-05 18:38 52.14192 6.87867 25928 ft 379 kts 291°
2026-05-05 18:38 52.15305 6.84022 25602 ft 373 kts 291°
2026-05-05 18:39 52.16399 6.80236 25154 ft 366 kts 291°
2026-05-05 18:39 52.17464 6.76551 24711 ft 353 kts 291°
2026-05-05 18:39 52.18495 6.72982 24265 ft 347 kts 291°
2026-05-05 18:39 52.19518 6.69427 23828 ft 346 kts 291°
2026-05-05 18:40 52.20538 6.65875 23359 ft 346 kts 291°
2026-05-05 18:40 52.21555 6.62327 22857 ft 344 kts 291°
2026-05-05 18:40 52.22565 6.58799 22423 ft 342 kts 291°
2026-05-05 18:40 52.23571 6.55295 21976 ft 340 kts 292°
2026-05-05 18:41 52.24569 6.51810 21544 ft 338 kts 292°
2026-05-05 18:41 52.25560 6.48336 21109 ft 337 kts 292°
2026-05-05 18:41 52.26544 6.44875 20680 ft 336 kts 292°
2026-05-05 18:41 52.27525 6.41423 20258 ft 335 kts 292°
2026-05-05 18:42 52.28504 6.37972 19821 ft 334 kts 293°
2026-05-05 18:42 52.29481 6.34526 19399 ft 334 kts 292°
2026-05-05 18:42 52.30454 6.31081 18979 ft 334 kts 293°
2026-05-05 18:42 52.31428 6.27638 18562 ft 334 kts 293°
2026-05-05 18:43 52.32401 6.24196 18137 ft 334 kts 294°
2026-05-05 18:43 52.33374 6.20745 17688 ft 333 kts 294°
2026-05-05 18:43 52.34330 6.17356 17274 ft 332 kts 294°
2026-05-05 18:43 52.35295 6.13933 16864 ft 330 kts 294°
2026-05-05 18:44 52.36254 6.10526 16455 ft 329 kts 294°
2026-05-05 18:44 52.37210 6.07127 16054 ft 328 kts 294°
2026-05-05 18:44 52.38161 6.03739 15649 ft 327 kts 294°
2026-05-05 18:44 52.39107 6.00356 15259 ft 326 kts 294°
2026-05-05 18:45 52.40049 5.96982 14855 ft 325 kts 294°
2026-05-05 18:45 52.40983 5.93619 14462 ft 324 kts 294°
2026-05-05 18:45 52.41915 5.90261 14057 ft 323 kts 294°
2026-05-05 18:45 52.42844 5.86914 13670 ft 322 kts 294°
2026-05-05 18:46 52.43768 5.83576 13238 ft 321 kts 294°
2026-05-05 18:46 52.44686 5.80255 12845 ft 318 kts 294°
2026-05-05 18:46 52.45598 5.76964 12441 ft 316 kts 294°
2026-05-05 18:46 52.46506 5.73690 12042 ft 314 kts 294°
2026-05-05 18:47 52.47407 5.70436 11642 ft 312 kts 294°
2026-05-05 18:47 52.48299 5.67199 11311 ft 308 kts 294°
2026-05-05 18:47 52.49161 5.64063 11019 ft 295 kts 294°
2026-05-05 18:47 52.49999 5.61011 10473 ft 289 kts 294°
2026-05-05 18:48 52.50807 5.58058 10070 ft 278 kts 294°
2026-05-05 18:48 52.51422 5.55165 9914 ft 260 kts 279°
2026-05-05 18:48 52.51400 5.52217 9849 ft 261 kts 257°
2026-05-05 18:48 52.50685 5.49483 9802 ft 262 kts 236°
2026-05-05 18:49 52.49636 5.46972 9739 ft 277 kts 237°
2026-05-05 18:49 52.48567 5.44272 9404 ft 285 kts 238°
2026-05-05 18:49 52.47492 5.41540 8981 ft 284 kts 238°
2026-05-05 18:49 52.46423 5.38812 8562 ft 283 kts 238°
2026-05-05 18:50 52.45352 5.36107 8154 ft 282 kts 238°
2026-05-05 18:50 52.44278 5.33418 7745 ft 281 kts 238°
2026-05-05 18:50 52.43206 5.30744 7343 ft 280 kts 238°
2026-05-05 18:50 52.42137 5.28077 6941 ft 279 kts 238°
2026-05-05 18:51 52.41075 5.25427 6552 ft 277 kts 238°
2026-05-05 18:51 52.40031 5.22832 6164 ft 276 kts 238°
2026-05-05 18:51 52.38973 5.20212 5742 ft 276 kts 238°
2026-05-05 18:51 52.37898 5.17592 5324 ft 278 kts 238°
2026-05-05 18:52 52.36822 5.14968 4929 ft 278 kts 238°
2026-05-05 18:52 52.35745 5.12345 4502 ft 277 kts 238°
2026-05-05 18:52 52.34687 5.09733 4404 ft 276 kts 238°
2026-05-05 18:52 52.33617 5.07104 4421 ft 279 kts 238°
2026-05-05 18:53 52.32538 5.04459 4411 ft 280 kts 238°
2026-05-05 18:53 52.31450 5.01805 4414 ft 281 kts 237°
2026-05-05 18:53 52.30368 4.99154 4424 ft 280 kts 238°
2026-05-05 18:53 52.29293 4.96502 4424 ft 278 kts 238°
2026-05-05 18:54 52.28224 4.93874 4417 ft 279 kts 238°
2026-05-05 18:54 52.27141 4.91229 4420 ft 282 kts 238°
2026-05-05 18:54 52.26042 4.88568 4421 ft 283 kts 238°
2026-05-05 18:54 52.24939 4.85900 4413 ft 283 kts 238°
2026-05-05 18:55 52.23840 4.83244 4418 ft 282 kts 238°
2026-05-05 18:55 52.22741 4.80599 4408 ft 282 kts 238°
2026-05-05 18:55 52.21640 4.77947 4420 ft 282 kts 238°
2026-05-05 18:55 52.20538 4.75292 4420 ft 283 kts 238°
2026-05-05 18:56 52.19443 4.72657 4419 ft 283 kts 238°
2026-05-05 18:56 52.18345 4.70003 4422 ft 282 kts 237°
2026-05-05 18:56 52.17264 4.67354 4406 ft 280 kts 238°
2026-05-05 18:56 52.16184 4.64713 4406 ft 281 kts 238°
2026-05-05 18:57 52.15100 4.62073 4405 ft 281 kts 237°
2026-05-05 18:57 52.14012 4.59427 4406 ft 281 kts 237°
2026-05-05 18:57 52.12936 4.56797 4079 ft 278 kts 238°
2026-05-05 18:57 52.12213 4.53940 3645 ft 271 kts 264°
2026-05-05 18:58 52.12376 4.50956 3203 ft 264 kts 294°
2026-05-05 18:58 52.13371 4.48546 2716 ft 255 kts 324°
2026-05-05 18:58 52.14873 4.47209 2306 ft 245 kts 347°
2026-05-05 18:58 52.16541 4.46938 2007 ft 235 kts
2026-05-05 18:59 52.18095 4.47690 1992 ft 234 kts 28°
2026-05-05 18:59 52.19388 4.49293 1993 ft 236 kts 47°
2026-05-05 18:59 52.20322 4.51495 1998 ft 235 kts 56°
2026-05-05 18:59 52.21190 4.53741 1990 ft 230 kts 56°
2026-05-05 19:00 52.21999 4.55830 1988 ft 211 kts 55°
2026-05-05 19:00 52.22752 4.57776 1991 ft 195 kts 56°
2026-05-05 19:00 52.23459 4.59600 1944 ft 186 kts 56°
2026-05-05 19:00 52.24143 4.61367 1767 ft 182 kts 55°
2026-05-05 19:01 52.24800 4.63067 1558 ft 170 kts 54°
2026-05-05 19:01 52.25420 4.64670 1323 ft 164 kts 55°
2026-05-05 19:01 52.26001 4.66176 1119 ft 145 kts 55°
2026-05-05 19:01 52.26507 4.67491 913 ft 131 kts 54°
2026-05-05 19:02 52.26987 4.68734 731 ft 127 kts 54°
2026-05-05 19:02 52.27455 4.69945 573 ft 126 kts 54°
2026-05-05 19:02 52.27920 4.71150 397 ft 126 kts 52°
2026-05-05 19:02 52.28378 4.72345 247 ft 125 kts 53°
2026-05-05 19:03 52.28838 4.73537 95 ft 123 kts 51°
2026-05-05 19:03 52.29282 4.74691 3 ft 110 kts 56°
2026-05-05 19:03 52.29611 4.75529 -1 ft 63 kts 59°
2026-05-05 19:03 52.29813 4.76072 -4 ft 50 kts 57°
2026-05-05 19:04 52.29962 4.76451 -3 ft 25 kts 53°
2026-05-05 19:04 52.30075 4.76582 -2 ft 17 kts 26°
2026-05-05 19:04 52.30141 4.76637 -1 ft 7 kts 28°
2026-05-05 19:04 52.30163 4.76656 -1 ft 0 kts 28°
2026-05-05 19:05 52.30192 4.76681 -1 ft 11 kts 28°
2026-05-05 19:05 52.30282 4.76745 -1 ft 16 kts 11°
2026-05-05 19:05 52.30341 4.76657 -1 ft 12 kts 264°
2026-05-05 19:06 52.30333 4.76576 -1 ft 6 kts 276°
2026-05-05 19:06 52.30366 4.76508 -1 ft 10 kts 324°
2026-05-05 19:06 52.30417 4.76456 -1 ft 3 kts 327°
2026-05-05 19:06 52.30428 4.76427 -1 ft 5 kts 283°
2026-05-05 19:07 52.30417 4.76380 -1 ft 4 kts 239°
2026-05-05 19:07 52.30409 4.76357 -1 ft 1 kts 238°
2026-05-05 19:07 52.30408 4.76355 -1 ft 0 kts 238°